User: anonymous   Login
Location: Young's Pond
(41.2695°N, 72.7766°W)
Time: 11:26:51
(UTC-04:00)
Language:

CZ-4B R/B - Orbit

View from above orbital plane
View from above orbital plane
View from above satellite
View from above satellite

Ground track
Ground track

The orbit data is extracted from the following two-line orbital elements,

1 29093U 06015B   15145.49323068  .00005835  00000-0  17683-3 0  9995
2 29093 097.4938 232.2881 0080090 132.6278 292.2337 15.31377222501835
Epoch (UTC): 25 May 2015 11:50:15
Eccentricity: 0.0080090
inclination: 97.4938°
perigee height: 417 km
apogee height: 526 km
right ascension of ascending node: 232.2881°
argument of perigee: 132.6278°
revolutions per day: 15.31377222
mean anomaly at epoch: 292.2337°
orbit number at epoch: 50183

The dashed part of the orbit path shows where the satellite is in the earth's shadow,  

DLR